Back to catalog

LATINSAT B

AliveCommunicationsLEO
NORAD 27606·PAYLOAD·🇦🇷 Argentina

Launched Dec 20, 2002 from Baikonur Cosmodrome

Loading…

Next Passes (next 24 hours)

TLE

FreshSource: Space-Track

Epoch: Sep 14, 2026, 22:25 UTC

1 27606U 02058B   26257.93411801  .00000502  00000-0  86910-4 0  9990
2 27606  64.5560 335.6270 0085627 252.4484 106.7251 14.77122000275350

Track LATINSAT B in real time with AllMySat

Download on the App Store